Location: Fiddletown
(38.4917°N, 120.6633°W)
Time: 07:36:36
(UTC-07:00)

Envisat - Visible Passes

Search period start: 24 July 2014 00:00
Search period end: 03 August 2014 00:00
Orbit: 765 x 767 km, 98.4° (Epoch: 24 July)

Date Brightness Start Highest point End Pass type
(mag) Time Alt. Az. Time Alt. Az. Time Alt. Az.
24 Jul 3.0 22:13:01 35° SSE 22:15:09 70° ENE 22:20:13 10° N visible
24 Jul 5.4 23:53:14 11° WSW 23:54:37 12° W 23:56:37 10° WNW visible
25 Jul 4.0 21:36:06 19° ESE 21:38:49 31° ENE 21:43:14 10° N visible
25 Jul 4.5 23:16:19 25° SW 23:17:46 28° W 23:22:08 10° NW visible
26 Jul 4.9 20:59:59 10° E 21:02:40 15° ENE 21:05:22 10° NNE visible
26 Jul 3.2 22:39:24 41° SSW 22:41:06 66° WSW 22:46:09 10° NNW visible
27 Jul 3.2 22:02:29 32° SE 22:04:37 55° ENE 22:09:34 10° N visible
27 Jul 5.2 23:42:43 15° WSW 23:43:56 16° W 23:46:58 10° NW visible
28 Jul 4.3 21:25:35 16° ESE 21:28:20 25° ENE 21:32:25 10° NNE visible
28 Jul 4.1 23:05:48 31° SW 23:07:08 36° W 23:11:48 10° NNW visible
29 Jul 5.0 20:50:38 10° E 20:52:15 12° ENE 20:53:53 10° NE visible
29 Jul 2.9 22:28:54 45° S 22:30:31 83° WSW 22:35:38 10° NNW visible
30 Jul 3.5 21:51:59 28° ESE 21:54:06 43° ENE 21:58:53 10° N visible
30 Jul 4.9 23:32:12 19° WSW 23:33:16 20° W 23:36:58 10° NW visible
31 Jul 4.5 21:15:05 13° ESE 21:17:52 20° ENE 21:21:31 10° NNE visible
31 Jul 3.7 22:55:18 38° SW 22:56:31 46° W 23:01:24 10° NNW visible
01 Aug 2.9 22:18:24 45° SSE 22:19:58 78° ENE 22:25:03 10° N visible
01 Aug 5.5 23:58:37 10° W 23:59:31 11° W 00:00:32 10° WNW visible
02 Aug 3.8 21:41:30 25° ESE 21:43:36 34° ENE 21:48:09 10° N visible
02 Aug 4.6 23:21:43 24° WSW 23:22:37 25° W 23:26:48 10° NW visible
